Miscellaneous Local Product
Issued by NWS Hastings, NE

Home | Current Version | Previous Version | Graphics & Text | Print | Product List | Glossary On
Versions: 1 2 3 4 5 6 7 8 9 10 11 12 13 14 15 16 17 18 19 20 21 22 23 24 25 26 27 28 29 30 31 32 33 34 35 36 37 38 39 40 41 42 43 44 45 46 47 48 49 50
000
AXUS43 KGID 231702
MISGRI

GID CWA HOURLY WEATHER ROUNDUP
NATIONAL WEATHER SERVICE HASTINGS NE
1200 PM CDT SAT SEP 23 2017

NOTE: "FAIR" INDICATES FEW OR NO CLOUDS BELOW 12,000 FEET WITH NO
SIGNIFICANT WEATHER AND/OR OBSTRUCTIONS TO VISIBILITY.

...SOUTH CENTRAL NEBRASKA...

CITY           SKY/WX    TMP DP  RH WIND       PRES   REMARKS
GRAND ISLAND   MOSUNNY   83  67  58 S13       29.92S
HASTINGS       MOSUNNY   84  64  50 S14       29.92F
KEARNEY        MOSUNNY   84  67  56 S14G22    29.92R
ORD            CLOUDY    68  56  65 N6        29.93S
YORK           MOSUNNY   82  66  57 S16       29.93F
AURORA         MOSUNNY   82  65  56 S13G18    29.92S
LEXINGTON      CLOUDY    71  60  70 NE8       29.92S
HOLDREGE       MOSUNNY   82  63  52 S15       29.92R
HEBRON         MOSUNNY   88  65  47 S16G22    29.94S HX  90

...NEBRASKA PANHANDLE...

CITY           SKY/WX    TMP DP  RH WIND       PRES   REMARKS
CHADRON        CLOUDY    45  43  93 NE10      30.05R FOG
ALLIANCE       CLOUDY    45  43  93 N14       30.01R FOG
SCOTTSBLUFF    CLOUDY    46  42  86 N9        30.03R
SIDNEY         CLOUDY    46  44  93 N8        30.02R FOG

...WESTERN AND NORTH CENTRAL NEBRASKA...

CITY           SKY/WX    TMP DP  RH WIND       PRES   REMARKS
VALENTINE      CLOUDY    50  49  96 N9        30.02R FOG
AINSWORTH      CLOUDY    50  50 100 N9        30.00S FOG
ONEILL         CLOUDY    54  54 100 N7        29.99S FOG
BROKEN BOW     CLOUDY    55  52  89 N10       29.96R
IMPERIAL       CLOUDY    53  48  83 NE13      29.95S
NORTH PLATTE   CLOUDY    53  52  96 NE9       29.96R FOG
MCCOOK         CLOUDY    78  64  61 S12       29.89S

...EASTERN NEBRASKA...

CITY           SKY/WX    TMP DP  RH WIND       PRES   REMARKS
NORFOLK        MOSUNNY   81  67  62 S9        29.91F
SO SIOUX CITY  SUNNY     80  70  71 S10       29.93F
TEKAMAH        CLOUDY    85  68  56 S10       29.94F
COLUMBUS       MOSUNNY   83  68  60 S12G18    29.93F
ALBION         SUNNY     78  69  73 E3        29.92F
OMAHA EPPLEY   PTSUNNY   85  67  54 S20       29.96F
MILLARD        SUNNY     87  69  55 S8G18     29.96S HX  91
LINCOLN        SUNNY     88  67  49 SE16G23   29.94S HX  91
NEBRASKA CITY  SUNNY     85  69  57 S14       29.99S
BEATRICE       SUNNY     87  67  51 S17G25    29.95F HX  90
FALLS CITY     SUNNY     86  67  52 SW10      29.99F

...NORTHERN KANSAS...

CITY           SKY/WX    TMP DP  RH WIND       PRES   REMARKS
GOODLAND       CLOUDY    61  52  72 N6        29.96R
HILL CITY      MOSUNNY   87  66  49 S13G26    29.90S
NORTON         SUNNY     82  57  42 S15G22    29.90S
PHILLIPSBURG   PTSUNNY   88  64  45 S16       29.90S
SMITH CENTER   CLOUDY    82  64  54 S16       29.92R
HAYS           MOSUNNY   86  66  51 S20G26    29.91F
RUSSELL        MOSUNNY   87  65  47 S24G31    29.91S
CONCORDIA      MOSUNNY   85  68  56 S18G26    29.94S
SALINA         SUNNY     90  64  42 S18G29    29.94F HX  91
TOPEKA         SUNNY     86  69  56 S12       30.01F HX  90



USA.gov is the U.S. government's official web portal to all federal, state and local government web resources and services.